Temp
62 62 62 63 62 63 63 63 63 63 63 63 63 63 63 63 64 59 60 70 68 70 69 65 63 61 60 57 57 53 46 40 45 45 52 52 51 54 54 52 52 59 55 54 50
62 62 62 62 62 62 62 63 63 62 63 63 63 63 63 62 58 59 70 71 71 70 66 64 60 60 56 54 54 51 43 47 51 50 52 54 53 54 51 52 53 56 56 51 50
62 62 62 62 62 62 62 62 62 62 62 62 62 62 62 59 59 65 72 72 70 70 66 63 62 60 52 52 52 49 48 50 54 55 55 54 53 56 52 53 56 59 60 52 49
61 61 61 62 62 62 63 63 62 62 62 62 62 62 61 56 54 64 69 71 69 67 66 62 59 54 50 51 54 47 53 54 56 57 54 53 55 53 55 64 62 61 59 52 50
61 60 61 61 61 62 62 63 63 62 62 62 62 62 58 55 62 64 67 67 65 65 63 60 57 54 50 50 51 48 51 55 55 54 54 54 55 54 53 61 59 57 56 55 52
60 60 60 60 61 62 62 62 62 62 62 62 62 61 55 52 66 64 62 63 63 62 60 60 59 58 52 52 52 50 51 53 54 54 54 54 57 52 58 55 59 56 55 54 53
60 60 60 60 61 61 61 62 62 61 61 61 62 58 53 60 63 62 64 61 62 62 58 59 61 57 54 49 53 51 49 50 50 52 51 51 50 48 61 53 57 56 54 55 53
60 60 60 60 60 61 61 61 61 61 61 61 61 53 54 62 59 61 61 60 59 61 62 61 60 57 53 52 52 45 42 41 49 48 49 52 45 60 58 53 55 55 54 52 54
59 59 60 60 60 60 60 61 60 62 61 61 54 53 55 63 59 61 61 60 61 59 58 65 59 53 50 44 42 38 37 39 44 51 50 48 44 55 55 50 54 55 55 57 57
59 59 60 60 60 60 60 61 60 60 60 60 62 51 59 58 58 59 58 61 57 57 56 53 49 45 41 42 36 38 34 38 39 48 44 44 43 51 57 51 57 60 59 57 58
60 60 60 60 60 61 57 54 54 53 52 55 53 53 57 57 59 57 59 59 57 53 46 46 42 40 49 46 46 39 38 37 44 52 42 47 49 53 56 56 57 58 58 58 61
60 60 60 60 60 60 53 50 47 48 45 53 53 54 57 57 53 54 60 54 50 45 44 40 37 47 46 45 44 42 40 41 47 51 42 44 46 52 55 56 59 60 62 62 61
60 59 59 59 59 55 50 48 52 49 41 49 52 51 54 57 52 54 57 50 47 42 42 44 46 48 47 43 43 39 37 43 41 43 42 39 39 42 48 52 57 59 61 61 60
59 59 59 59 55 50 49 52 52 50 38 43 48 51 52 53 48 52 53 52 44 44 42 41 46 46 40 42 44 41 46 45 42 36 32 40 33 40 53 54 49 54 55 54 54
58 58 59 59 52 53 55 54 51 49 32 47 47 55 51 49 46 48 50 48 42 42 43 43 41 40 40 44 45 42 44 41 36 33 31 31 29 37 43 43 49 52 53 54 56
56 57 58 56 55 55 56 55 55 43 33 43 47 44 45 45 45 46 46 50 46 42 41 42 43 45 45 44 45 44 39 36 31 32 27 37 35 38 40 46 46 50 55 55 54
55 56 56 58 54 54 54 52 40 33 49 42 42 43 42 42 42 42 41 39 39 34 33 37 40 42 46 39 39 40 36 28 25 22 31 34 32 45 46 51 51 56 57 52 51
55 56 55 57 54 54 53 46 32 41 43 47 46 45 43 45 45 43 39 36 40 37 34 35 37 41 43 45 42 36 38 27 19 22 35 32 34 44 49 52 52 49 48 51 51
55 52 54 55 55 54 48 38 38 43 49 47 47 42 39 43 46 42 39 37 42 44 41 33 34 40 42 41 45 35 34 39 31 19 20 37 43 52 50 48 46 48 47 50 49
45 47 50 55 55 51 43 40 42 49 49 49 41 45 39 41 42 39 40 40 41 44 48 42 34 41 38 39 38 40 40 31 27 23 18 32 32 40 47 48 49 47 47 48 49
45 42 48 54 55 46 37 40 45 51 51 46 43 42 42 41 42 43 42 44 43 43 45 44 39 37 37 35 38 34 35 34 36 33 29 26 33 51 47 45 44 49 52 49 50
43 35 50 55 41 42 38 42 46 47 50 46 45 43 42 43 41 40 40 44 47 46 40 44 36 30 35 44 42 43 43 43 34 28 32 34 33 54 53 51 49 51 54 53 46
39 38 51 50 36 37 42 41 44 42 43 44 42 44 47 42 37 42 42 46 44 45 40 40 34 29 33 33 34 32 37 39 38 38 32 28 33 48 50 50 52 44 34 39 39
37 30 36 44 44 38 38 40 40 46 44 44 43 45 41 39 42 37 37 42 40 41 44 41 34 31 27 31 33 30 32 34 32 25 27 28 32 37 40 36 31 34 35 35 35
34 31 35 33 34 37 39 39 36 34 41 44 40 39 37 33 35 34 34 33 38 39 37 35 26 30 30 32 32 30 28 30 29 32 27 32 34 34 28 29 32 33 33 33 33
29 31 35 29 32 30 33 34 34 36 40 35 37 34 34 32 31 29 27 29 28 32 31 33 22 26 22 29 29 26 29 31 32 33 33 33 32 28 31 32 31 31 31 32 34
32 35 35 30 28 27 27 30 29 32 33 34 31 29 28 31 31 32 32 32 31 28 26 25 20 11 17 27 23 16 24 29 29 28 24 22 23 26 26 29 30 31 31 31 31
MSLP
1019.77 1019.60 1019.38 1019.22 1019.02 1018.80 1018.63 1018.38 1018.20 1018.01 1017.81 1017.52 1017.21 1016.91 1016.62 1016.33 1015.91 1015.94 1015.48 1013.72 1013.77 1014.10 1014.41 1015.10 1015.32 1015.56 1015.86 1016.48 1016.94 1017.60 1018.60 1018.89 1017.94 1017.12 1015.50 1014.59 1014.42 1013.92 1013.81 1014.03 1014.19 1014.10 1014.14 1014.23 1014.99
1019.86 1019.70 1019.54 1019.33 1019.11 1018.87 1018.65 1018.48 1018.25 1018.03 1017.78 1017.56 1017.26 1016.94 1016.62 1016.35 1016.04 1015.24 1013.46 1013.38 1013.61 1013.92 1014.52 1015.04 1015.55 1015.83 1016.42 1016.78 1017.22 1017.68 1018.50 1017.75 1016.46 1015.84 1015.07 1014.45 1014.33 1013.93 1014.03 1013.96 1013.81 1013.73 1013.66 1014.35 1015.15
1019.98 1019.74 1019.57 1019.39 1019.21 1018.96 1018.68 1018.53 1018.35 1018.06 1017.82 1017.56 1017.27 1016.91 1016.59 1016.38 1015.86 1013.75 1012.94 1013.10 1013.45 1013.77 1014.23 1014.82 1015.41 1015.85 1016.55 1016.88 1017.14 1017.51 1017.51 1016.65 1015.72 1015.23 1014.90 1014.55 1014.12 1013.69 1013.89 1013.67 1013.14 1013.36 1013.12 1013.99 1014.83
1019.94 1019.80 1019.60 1019.43 1019.19 1018.95 1018.68 1018.38 1018.20 1018.02 1017.75 1017.51 1017.14 1016.78 1016.37 1016.29 1015.35 1013.26 1013.03 1013.11 1013.53 1013.87 1014.39 1015.02 1015.66 1016.16 1016.54 1016.79 1016.59 1017.16 1016.32 1016.05 1015.23 1014.84 1014.78 1014.57 1013.95 1013.77 1013.77 1012.13 1011.85 1012.15 1012.47 1013.15 1014.01
1019.76 1019.65 1019.54 1019.35 1019.16 1018.90 1018.60 1018.28 1017.95 1017.71 1017.52 1017.28 1017.07 1016.70 1016.25 1016.04 1014.41 1013.13 1013.13 1013.38 1013.89 1014.12 1014.53 1015.09 1015.57 1015.97 1016.26 1016.36 1016.56 1016.75 1016.03 1015.67 1015.08 1015.04 1014.79 1014.50 1013.62 1013.73 1013.03 1011.57 1011.47 1012.02 1012.47 1012.69 1013.17
1019.66 1019.51 1019.39 1019.27 1018.94 1018.65 1018.32 1017.98 1017.66 1017.41 1017.24 1017.10 1017.00 1016.83 1016.58 1015.50 1012.86 1013.08 1013.38 1013.70 1013.83 1014.29 1014.72 1014.96 1015.17 1015.35 1015.76 1015.91 1016.23 1015.88 1015.77 1015.48 1014.98 1014.65 1014.51 1014.45 1013.08 1013.42 1011.56 1010.91 1011.12 1011.55 1011.51 1011.86 1012.22
1019.48 1019.34 1019.19 1019.03 1018.80 1018.38 1017.97 1017.55 1017.12 1016.88 1016.80 1016.78 1016.80 1016.93 1016.46 1013.64 1012.95 1013.30 1013.50 1013.66 1013.76 1014.07 1014.56 1014.59 1014.74 1015.23 1015.54 1015.69 1015.59 1015.71 1015.98 1015.36 1014.52 1013.94 1014.19 1014.08 1013.62 1012.28 1010.20 1011.01 1010.85 1010.86 1010.79 1010.89 1010.92
1019.39 1019.28 1019.06 1018.84 1018.58 1018.22 1017.70 1017.21 1016.62 1016.02 1015.99 1016.19 1016.55 1016.74 1015.49 1013.11 1013.12 1013.41 1013.49 1013.73 1013.91 1013.95 1013.98 1014.16 1014.56 1015.02 1015.44 1015.63 1015.75 1016.10 1016.26 1015.76 1013.84 1013.99 1013.80 1014.07 1012.91 1010.45 1010.27 1010.76 1010.60 1010.24 1010.21 1009.98 1009.49
1019.26 1019.13 1019.02 1018.73 1018.39 1017.98 1017.33 1016.77 1016.32 1015.72 1015.74 1016.01 1016.49 1016.37 1014.78 1013.24 1013.23 1013.08 1013.13 1013.49 1013.91 1014.15 1014.20 1014.37 1014.67 1015.34 1015.86 1016.30 1016.75 1016.82 1016.40 1015.75 1014.51 1013.18 1013.61 1013.88 1012.38 1010.53 1010.11 1010.57 1010.43 1009.68 1009.25 1009.11 1008.41
1019.01 1018.91 1018.81 1018.58 1018.24 1017.68 1016.92 1016.33 1016.14 1016.00 1016.06 1016.20 1016.10 1016.50 1013.76 1013.01 1013.00 1013.26 1013.40 1013.53 1013.97 1014.48 1014.87 1015.09 1015.71 1015.95 1016.74 1016.91 1016.86 1016.41 1016.67 1015.85 1015.11 1013.59 1013.69 1013.49 1012.19 1011.24 1010.13 1010.46 1009.56 1009.01 1008.30 1007.89 1007.55
1018.82 1018.71 1018.60 1018.47 1018.20 1017.67 1017.04 1016.68 1016.85 1016.66 1016.33 1015.60 1015.46 1014.86 1013.67 1013.25 1013.00 1013.37 1013.45 1013.72 1014.29 1014.84 1015.44 1015.73 1016.42 1016.24 1015.43 1015.82 1015.77 1016.29 1016.16 1015.72 1014.51 1013.60 1013.66 1012.82 1011.93 1010.79 1010.14 1009.32 1008.41 1007.54 1007.14 1006.44 1005.60
1018.53 1018.55 1018.43 1018.30 1018.04 1017.66 1017.73 1018.19 1018.67 1019.01 1017.32 1015.08 1014.51 1014.24 1013.16 1013.03 1013.34 1013.38 1013.47 1014.12 1014.62 1015.31 1015.84 1016.57 1015.88 1015.45 1015.57 1015.81 1016.35 1016.33 1016.10 1015.50 1014.19 1013.31 1013.51 1012.33 1010.62 1009.92 1009.06 1007.77 1006.72 1006.27 1005.38 1005.34 1005.36
1018.33 1018.34 1018.35 1018.23 1018.14 1017.98 1018.50 1018.81 1018.62 1018.81 1018.28 1015.09 1013.89 1013.41 1012.95 1013.05 1013.11 1013.16 1013.50 1013.97 1014.52 1015.45 1015.74 1015.54 1015.00 1014.74 1015.18 1015.61 1015.99 1015.51 1015.86 1014.84 1014.61 1014.08 1013.49 1012.37 1009.34 1008.29 1007.03 1006.57 1006.12 1005.00 1004.63 1004.98 1005.14
1018.09 1018.05 1018.19 1018.10 1018.62 1018.61 1018.59 1018.64 1018.64 1018.78 1017.89 1014.80 1013.52 1012.68 1012.60 1012.74 1013.21 1013.24 1013.18 1013.48 1014.44 1014.72 1015.73 1015.49 1014.62 1014.81 1015.09 1015.15 1014.98 1014.98 1013.94 1014.19 1014.59 1015.21 1014.70 1013.13 1009.55 1008.41 1006.53 1005.93 1005.44 1004.70 1004.54 1004.80 1004.70
1017.98 1017.84 1017.89 1018.09 1018.56 1018.66 1018.67 1018.49 1018.54 1019.02 1017.19 1013.88 1012.95 1012.60 1012.68 1013.02 1013.45 1013.51 1013.51 1013.35 1013.79 1014.76 1015.58 1014.63 1014.51 1014.53 1014.63 1013.64 1014.30 1014.05 1013.63 1014.13 1014.65 1015.30 1014.86 1013.42 1012.70 1007.19 1005.78 1005.26 1004.62 1004.54 1004.60 1004.62 1004.57
1017.80 1017.81 1018.04 1018.11 1018.60 1018.56 1018.61 1018.61 1018.54 1018.66 1014.91 1013.14 1012.67 1012.62 1013.00 1013.12 1013.42 1013.75 1013.71 1013.74 1014.14 1014.33 1014.74 1014.54 1014.10 1013.92 1013.48 1013.45 1013.32 1014.06 1014.36 1014.75 1015.16 1015.25 1014.02 1012.39 1011.63 1006.82 1005.61 1004.59 1004.27 1003.87 1003.70 1003.95 1004.90
1018.04 1017.99 1017.90 1017.78 1018.44 1018.45 1018.65 1018.74 1018.77 1016.38 1013.93 1013.18 1012.80 1012.89 1013.02 1013.25 1013.33 1013.72 1014.08 1014.37 1014.62 1014.63 1014.45 1014.12 1013.71 1013.08 1012.76 1013.55 1013.87 1014.10 1015.09 1015.89 1015.72 1015.35 1012.47 1010.59 1009.83 1005.68 1004.96 1004.05 1003.97 1003.98 1003.77 1004.04 1004.61
1018.15 1018.05 1018.08 1017.65 1018.34 1018.31 1018.82 1018.49 1017.37 1015.48 1014.17 1013.24 1012.92 1013.10 1013.55 1013.39 1013.32 1014.11 1014.53 1014.69 1014.25 1014.40 1014.64 1014.09 1012.60 1012.53 1012.36 1012.60 1012.78 1014.03 1014.70 1016.12 1015.49 1014.17 1011.92 1010.83 1006.75 1004.01 1003.67 1003.53 1003.64 1003.77 1004.35 1004.49 1004.96
1018.22 1017.81 1018.07 1017.79 1017.92 1018.56 1018.66 1017.44 1015.76 1014.91 1014.18 1013.52 1013.30 1013.39 1013.63 1013.52 1013.62 1013.87 1014.76 1014.55 1014.13 1013.82 1013.84 1013.54 1012.11 1011.64 1011.69 1011.86 1012.28 1013.61 1014.15 1013.73 1014.26 1013.74 1013.13 1009.28 1005.30 1003.18 1003.01 1003.22 1004.08 1004.31 1004.57 1004.96 1005.41
1018.80 1018.38 1017.38 1017.01 1017.72 1018.11 1018.12 1016.06 1015.26 1014.17 1013.83 1013.79 1013.98 1013.97 1013.69 1013.61 1014.00 1014.17 1014.22 1013.44 1013.21 1013.24 1012.76 1013.24 1012.13 1011.47 1011.82 1012.08 1012.59 1012.79 1012.88 1013.64 1014.44 1014.13 1012.22 1008.83 1007.18 1002.64 1003.08 1003.99 1004.56 1004.89 1005.44 1005.59 1005.44
1018.67 1018.50 1016.84 1016.72 1017.29 1017.99 1016.80 1015.35 1014.48 1014.33 1014.06 1014.56 1014.07 1014.11 1013.90 1013.50 1013.77 1014.17 1013.79 1013.59 1013.56 1013.56 1013.72 1013.71 1013.28 1011.73 1012.13 1012.53 1012.29 1013.39 1013.18 1013.36 1013.39 1012.84 1011.52 1009.50 1006.15 1003.41 1003.81 1004.17 1004.53 1005.53 1006.00 1006.43 1005.85
1018.91 1018.48 1016.91 1016.73 1017.27 1017.09 1015.97 1015.48 1015.03 1014.44 1014.19 1014.29 1014.65 1013.94 1014.06 1013.97 1013.90 1014.13 1013.74 1013.59 1013.53 1013.68 1014.70 1014.03 1014.21 1013.62 1012.16 1011.81 1011.70 1011.77 1012.67 1012.62 1012.32 1011.66 1010.21 1008.32 1006.18 1004.79 1004.67 1005.13 1005.43 1005.80 1006.69 1007.32 1008.56
1018.93 1018.25 1017.20 1017.15 1017.02 1016.35 1015.87 1015.52 1015.17 1014.61 1014.23 1014.59 1014.46 1014.51 1014.13 1014.14 1014.39 1014.04 1013.97 1013.80 1014.57 1014.08 1014.94 1014.84 1014.53 1014.11 1012.69 1012.08 1012.98 1012.93 1013.41 1013.24 1012.57 1011.31 1009.98 1008.52 1006.31 1006.63 1006.35 1006.57 1007.25 1008.61 1009.40 1009.84 1010.16
1019.67 1019.39 1018.16 1017.65 1017.05 1016.99 1016.49 1015.51 1015.35 1014.46 1014.50 1014.62 1014.72 1014.79 1015.03 1014.92 1014.83 1014.77 1015.02 1014.81 1015.11 1015.19 1015.42 1015.84 1015.48 1015.11 1014.52 1014.06 1014.05 1014.17 1014.39 1014.23 1014.62 1013.00 1011.33 1010.55 1009.45 1009.51 1010.41 1010.98 1010.33 1011.39 1011.46 1011.99 1011.68
1020.16 1019.81 1019.37 1018.57 1018.08 1017.65 1017.65 1016.41 1015.95 1015.74 1015.23 1015.13 1015.29 1015.48 1015.99 1016.18 1016.01 1016.06 1016.06 1016.29 1016.27 1016.67 1016.73 1016.91 1016.52 1016.33 1015.83 1015.84 1015.05 1015.31 1015.43 1014.62 1013.92 1012.97 1012.20 1010.80 1010.99 1011.80 1013.48 1013.59 1013.35 1013.20 1012.81 1012.89 1012.24
1020.72 1020.61 1020.06 1019.83 1019.14 1018.69 1018.35 1017.02 1016.79 1016.40 1016.62 1016.06 1016.31 1016.79 1017.13 1017.33 1017.86 1018.09 1018.45 1018.37 1018.54 1018.30 1018.23 1018.29 1018.01 1017.96 1017.41 1015.97 1016.47 1016.07 1014.89 1014.20 1013.64 1012.57 1011.78 1012.30 1012.75 1014.57 1015.04 1014.46 1014.31 1014.57 1014.18 1013.16 1012.18
1021.20 1020.80 1020.55 1020.18 1020.10 1019.84 1019.11 1018.27 1018.02 1017.73 1018.23 1018.24 1018.60 1018.54 1018.45 1018.75 1019.36 1019.86 1019.83 1019.88 1020.19 1019.84 1019.52 1019.85 1019.76 1019.92 1018.38 1017.54 1017.68 1016.39 1014.12 1013.72 1013.62 1013.62 1014.33 1014.40 1014.84 1015.21 1015.28 1014.82 1015.17 1014.95 1014.86 1014.16 1013.55
Wind_Speed
12 13 13 14 14 14 14 14 14 14 13 13 13 13 13 12 7 1 6 9 4 13 7 6 3 3 3 3 3 4 4 2 6 5 6 1 1 2 1 2 3 7 5 2 4
11 12 14 14 15 14 14 15 15 15 15 14 14 13 13 11 2 6 8 3 9 13 6 7 4 4 2 2 1 5 4 9 7 5 5 3 3 3 1 4 5 6 5 4 6
11 12 13 14 15 15 14 14 14 14 14 14 14 14 13 6 5 6 2 9 13 8 6 3 6 4 2 2 4 5 7 5 6 8 5 4 4 4 4 7 11 9 8 6 7
9 11 12 13 14 15 15 15 15 15 14 14 14 14 14 1 6 1 2 8 11 8 7 6 4 4 3 5 5 3 9 6 5 4 3 4 5 5 8 18 8 14 6 5 10
8 9 11 12 13 14 15 16 16 15 14 13 13 13 3 2 11 3 8 10 6 5 7 6 5 6 5 5 3 5 5 6 7 7 8 4 15 8 10 19 10 8 7 11 10
8 9 10 11 13 14 16 17 17 16 14 12 10 10 1 6 1 7 9 6 6 6 6 6 7 7 4 5 7 3 4 7 7 7 7 7 17 6 13 7 12 7 13 13 12
8 9 10 11 14 16 17 18 19 17 15 12 7 2 2 18 3 6 6 5 7 6 6 5 6 5 3 3 3 2 7 9 7 7 8 7 12 12 20 3 13 13 11 10 14
9 10 10 11 12 15 17 19 20 18 14 9 5 3 9 1 5 5 4 3 2 3 4 6 5 5 4 1 5 3 2 4 2 7 3 8 11 22 8 7 14 13 12 10 13
9 9 10 11 12 15 18 20 11 7 4 10 5 4 10 3 2 3 5 6 6 2 2 3 5 4 3 5 4 3 6 8 12 13 6 8 9 14 6 4 11 13 12 12 13
8 9 10 11 13 16 21 15 5 2 4 2 1 2 5 4 1 3 1 6 4 5 4 4 5 3 2 4 8 9 6 7 7 5 5 7 16 13 20 6 18 19 18 14 16
9 10 10 11 12 16 11 4 5 3 3 8 5 5 5 2 0 3 1 5 4 5 6 1 4 9 21 12 2 1 5 7 10 12 4 16 18 20 18 21 22 22 20 22 23
9 9 10 10 11 14 3 5 1 1 10 8 10 8 7 2 3 2 5 6 4 6 6 2 8 13 3 4 7 9 11 16 13 19 5 14 19 19 21 22 26 26 25 21 15
9 8 8 9 12 4 2 1 2 3 3 9 6 5 4 8 7 7 10 4 5 7 9 12 6 8 7 5 9 7 7 17 14 8 6 9 13 10 10 11 20 25 22 17 15
8 6 7 8 3 1 2 1 2 1 5 9 4 4 2 4 4 2 2 6 3 9 6 8 6 7 4 7 11 16 13 13 11 4 5 5 14 3 14 15 10 15 14 12 11
7 5 2 1 1 2 1 2 3 2 10 3 2 1 1 4 1 3 1 2 4 5 6 9 5 4 5 12 8 11 5 5 2 4 5 3 5 3 4 6 10 9 9 10 12
9 8 4 3 0 1 1 1 2 2 13 3 2 1 3 1 1 2 2 3 2 3 4 8 3 6 8 5 9 2 1 3 4 3 8 13 10 4 5 7 4 3 7 8 8
10 8 4 3 1 4 2 2 2 7 6 1 1 2 2 3 1 3 3 3 5 1 3 2 6 4 5 3 0 3 4 5 5 1 11 2 6 11 6 9 6 11 11 6 6
15 6 3 2 5 5 2 2 9 4 5 3 1 2 4 5 2 3 2 4 5 2 2 4 13 9 5 9 9 8 10 7 8 6 13 3 17 11 8 6 8 5 4 6 9
11 0 2 3 7 2 1 8 6 5 4 3 5 3 4 4 4 2 5 6 7 13 9 5 9 2 6 3 7 5 6 3 3 2 1 11 21 19 12 7 3 5 4 8 8
2 2 4 6 9 3 4 13 6 6 3 3 5 3 4 3 4 5 5 3 4 8 3 4 13 6 1 3 1 5 3 1 2 3 11 13 7 23 15 10 8 9 10 10 8
1 1 3 8 5 3 12 7 8 9 4 5 6 10 8 4 6 11 5 4 3 3 2 4 2 9 1 6 9 2 3 3 2 6 13 13 14 15 10 7 9 12 12 9 11
1 2 1 7 6 4 10 7 2 13 5 4 2 5 12 9 8 10 9 8 2 3 9 6 3 7 14 12 7 8 20 23 14 10 10 18 18 24 20 14 9 16 17 18 18
2 2 1 0 7 9 7 7 4 3 11 5 7 7 12 16 17 18 9 1 4 3 2 3 3 8 17 3 5 0 4 8 14 17 25 23 16 4 15 22 19 19 12 14 16
0 2 3 2 5 4 6 15 16 4 8 8 10 12 16 18 14 9 6 1 4 2 3 4 6 10 11 15 8 8 11 19 16 10 14 18 19 12 17 19 25 19 18 15 16
2 2 1 3 5 7 6 9 12 9 4 4 3 5 4 7 8 8 2 6 4 7 3 1 6 2 13 15 18 16 19 23 23 24 23 27 28 10 12 13 12 17 18 17 16
3 2 1 3 3 2 4 9 16 16 7 9 9 5 1 5 1 4 3 1 3 3 2 2 6 6 14 23 8 18 22 22 26 28 26 21 17 5 6 12 14 16 18 21 22
1 2 1 3 0 2 3 3 3 2 8 7 8 5 4 0 1 3 6 7 6 6 4 3 3 2 16 20 11 11 16 16 10 8 5 6 4 6 8 13 11 13 12 14 17
Wind_Direction
19 15 12 9 6 5 1 0 358 356 354 351 350 347 344 339 314 149 237 219 175 150 95 122 82 96 70 94 100 133 66 247 252 187 256 208 307 200 172 262 224 208 219 215 114
10 9 7 6 4 360 356 353 352 350 347 346 343 341 338 335 287 246 251 201 139 153 108 143 148 113 67 126 73 105 141 222 213 205 239 286 202 262 242 248 254 279 242 126 147
0 0 360 360 359 359 356 351 346 343 340 341 338 335 331 327 336 248 321 182 163 155 123 96 104 111 165 143 198 175 210 218 252 231 270 268 275 217 182 265 225 221 248 178 184
345 346 348 350 352 351 348 345 340 337 336 334 334 332 324 282 301 7 22 159 147 119 108 110 100 131 190 211 188 214 241 214 254 209 278 250 291 248 181 253 232 219 234 175 199
328 331 334 338 339 340 339 336 332 328 326 327 329 334 344 13 249 134 103 114 111 109 151 141 144 149 199 199 175 213 235 239 250 271 258 286 256 234 241 257 254 243 230 237 224
316 320 324 326 329 331 329 327 324 318 314 313 320 324 128 252 220 139 125 128 141 131 151 136 190 205 217 213 182 227 259 270 275 249 240 203 269 140 254 253 264 240 242 234 226
303 310 318 322 323 325 321 319 314 306 298 292 295 288 184 239 87 132 138 173 163 156 157 198 162 153 164 265 263 294 312 311 223 244 234 164 292 230 249 196 267 262 257 250 236
304 308 312 316 317 316 315 314 311 305 291 257 210 166 243 339 124 129 155 111 136 173 176 166 166 182 179 297 357 313 163 309 270 136 262 154 253 273 262 210 262 276 279 261 254
302 308 313 315 315 313 312 314 319 354 64 135 121 152 262 139 236 200 158 158 127 90 65 94 128 169 78 106 8 329 241 228 305 199 150 188 249 269 264 178 273 277 269 277 280
294 303 312 318 321 321 320 318 269 17 67 211 78 27 277 269 165 97 359 128 122 113 65 63 49 129 50 116 226 224 228 254 247 300 183 241 256 278 288 235 263 274 270 260 261
293 302 312 322 327 327 343 7 5 350 28 198 202 252 288 311 81 58 146 97 95 83 171 190 144 192 226 207 284 165 252 248 266 276 298 265 268 275 274 285 271 263 259 262 259
278 292 307 321 327 329 23 61 61 251 305 247 242 256 231 200 280 185 137 147 154 190 118 69 226 224 85 163 226 250 269 268 272 264 203 269 271 267 263 255 261 270 273 266 274
276 286 302 319 324 35 37 48 155 147 250 285 221 204 235 155 220 220 152 139 164 164 202 210 211 203 192 171 238 217 217 259 260 321 250 298 271 231 261 252 262 265 264 276 269
290 296 299 315 312 284 67 284 144 136 291 273 260 280 164 157 254 345 225 155 187 216 193 241 258 195 149 214 211 267 224 249 266 3 248 18 296 307 258 269 244 265 273 266 258
350 359 327 100 300 341 209 168 119 360 290 252 204 285 52 156 93 2 304 53 180 172 134 246 188 171 185 218 144 241 198 225 187 205 337 230 272 237 151 260 270 278 276 273 271
29 4 126 102 236 53 74 109 1 170 246 303 102 54 115 42 67 23 74 50 97 166 208 244 306 178 221 234 181 48 42 51 67 101 268 200 197 94 166 195 240 227 274 267 325
12 346 175 131 219 115 94 77 298 230 341 294 253 185 192 203 274 161 137 178 200 332 244 250 227 242 167 221 48 144 74 309 322 32 253 171 230 248 237 222 211 281 269 311 331
345 330 228 162 146 135 117 211 219 236 267 300 25 68 263 186 159 66 28 275 240 137 190 234 282 187 174 198 189 180 167 166 235 258 281 90 260 269 212 246 239 322 308 318 324
326 122 230 204 150 154 187 221 218 189 232 307 328 276 258 241 185 111 192 232 233 189 201 218 257 201 204 151 148 172 181 197 295 13 321 264 277 280 215 286 282 289 8 317 321
2 313 223 165 153 124 227 244 249 211 7 345 261 228 246 238 168 168 207 202 249 209 61 299 299 211 288 92 46 171 189 53 355 252 258 269 272 261 303 308 319 324 341 337 311
128 231 266 130 134 170 234 236 235 221 223 250 249 268 242 229 223 261 229 306 301 45 206 16 135 252 21 194 193 87 251 244 228 200 248 261 256 274 291 305 329 315 310 299 289
209 214 280 150 190 206 232 231 167 255 292 246 276 255 263 277 283 275 249 202 113 84 278 205 212 252 252 241 202 208 252 240 242 245 230 254 258 285 295 310 314 313 317 353 19
178 282 317 151 221 224 248 280 271 256 241 261 270 240 263 265 268 250 255 136 65 130 253 83 227 293 291 65 19 120 337 296 307 270 259 268 266 286 320 324 325 12 48 18 14
84 268 317 253 262 264 264 263 261 213 250 228 247 262 275 269 265 273 276 305 7 39 108 140 221 230 263 281 337 284 327 305 281 278 302 295 309 322 321 344 342 10 28 22 15
24 241 286 209 249 268 271 275 279 283 231 39 283 243 294 282 278 255 310 7 28 15 63 113 257 331 304 291 303 306 282 274 271 271 263 281 281 328 16 356 351 351 2 5 8
156 183 327 292 295 264 199 250 260 277 274 269 251 346 262 241 11 351 6 105 297 358 72 352 285 350 288 288 293 288 286 270 266 269 268 267 275 34 16 8 5 350 350 347 345
292 312 130 264 171 148 246 312 35 30 51 54 55 360 338 108 55 240 224 241 242 260 219 221 211 96 270 286 326 287 249 261 279 352 329 287 44 8 349 345 327 309 326 343 337